Location: Cuiry
(49.3858°N, 3.7708°E)
Time: 06:56:09
(UTC+00:00)

NOSS 3-4 (A) - Pass Details

Date: 12 January 2026
Orbit: 769 x 1442 km, 63.4° (Epoch: 10 January)

Event Time Altitude Azimuth Distance (km) Brightness Sun altitude
Rises 19:21:46 0° 235° (SW) 3,244 7.0 -30.4°
Reaches altitude 10° 19:24:07 10° 239° (WSW) 2,345 6.2 -30.8°
Enters shadow 19:28:55 57° 298° (WNW) 979 3.6 -31.6°
